[[{"header":{"parameterUnit":"m.s-1","parameterCategory":1,"la1":30.2991,"la2":30.254,"lo1":-89.0895,"lo2":-89.0444,"dy":0.0017,"dx":0.0017,"nx":28,"ny":28,"refTime":"2024-06-03T09:00:00:Z","depth":0,"parameterNumber":2,"parameterNumberName":"U-component_of_WINDS"},"data":[0,0,0,0,0,0,0,0,0,0,0,0,0,0,0,0,0,0,0,0,0,0,0,0,0,0,0,0,0,0,0,0,0,0,0,0,0,0,0,0,0,0,0,0,0,0,0,0,0,0,0,0,0,0,0,0,0,0,-3.3366,-3.3366,0,-3.336,-3.336,-3.336,-3.3302,-3.3301,-3.33,-3.3298,-3.3291,-3.3292,-3.3293,0,0,0,0,0,0,0,0,0,0,0,0,0,-3.3326,-3.3327,-3.3366,-3.3366,-3.3366,-3.336,-3.336,-3.336,-3.3303,-3.3301,-3.3299,-3.3298,-3.3291,-3.3292,-3.3294,0,0,0,0,0,0,0,0,0,0,0,0,0,-3.3334,-3.3327,-3.3366,-3.3337,-3.3334,-3.336,-3.336,-3.336,-3.3303,-3.3301,-3.3299,-3.3297,-3.329,-3.3292,-3.3294,-3.3347,0,0,-3.3299,-3.33,0,0,0,0,0,0,0,0,-3.3334,-3.3336,-3.3341,-3.3339,-3.3336,-3.333,-3.3343,-3.3356,-3.3304,-3.3315,-3.3298,-3.3296,-3.3306,-3.3306,-3.331,-3.3347,-3.3347,-3.3299,-3.33,-3.3301,-3.3301,0,0,0,0,0,0,0,-3.3333,-3.3336,-3.3364,-3.3341,-3.3338,-3.3323,-3.3322,-3.3345,-3.3322,-3.3314,-3.3309,-3.331,-3.3304,-3.3308,-3.3309,-3.3347,-3.3299,-3.3301,-3.3302,-3.3302,-3.3425,-3.3427,0,0,0,0,0,0,-3.3337,-3.3335,-3.3364,-3.3363,-3.3329,-3.3326,-3.3324,-3.3334,-3.3322,-3.3318,-3.3311,-3.3307,-3.3306,-3.3307,-3.3309,-3.3368,-3.3301,-3.3303,-3.3304,-3.3422,-3.3425,-3.3427,0,0,0,0,0,0,-3.3336,-3.334,-3.3364,-3.3348,-3.335,-3.3329,-3.334,-3.3335,-3.3339,-3.332,-3.3316,-3.332,-3.3305,-3.3306,-3.3337,-3.3367,-3.3303,-3.3305,-3.342,-3.3423,-3.3426,-3.3489,0,0,0,0,0,0,-3.3335,-3.334,-3.3361,-3.3349,-3.3351,-3.3394,-3.3342,-3.3336,-3.3342,-3.3336,-3.3327,-3.3324,-3.3303,-3.3335,-3.3339,-3.3368,-3.3306,-3.3417,-3.3421,-3.3425,-3.3484,-3.3494,-3.3502,0,0,0,0,0,-3.3334,-3.3379,-3.3362,-3.3366,-3.3377,-3.3396,-3.3397,-3.3372,-3.3345,-3.3365,-3.3352,-3.3324,-3.3364,-3.3339,-3.3343,-3.3373,-3.3415,-3.342,-3.3425,-3.348,-3.3492,-3.3502,0,0,0,0,0,0,-3.3395,-3.3377,-3.3358,-3.3401,-3.34,-3.3386,-3.341,-3.3387,-3.3394,-3.3388,-3.3357,-3.3355,-3.3391,-3.3385,-3.3358,-3.3423,-3.3384,-3.339,-3.3424,-3.3436,-3.3445,-3.3444,-3.3308,0,0,0,0,0,-3.3414,-3.3431,-3.3414,-3.3454,-3.3454,-3.3433,-3.344,-3.3421,-3.3419,-3.3418,-3.3408,-3.3407,-3.3419,-3.3428,-3.3438,-3.3484,-3.3479,-3.3506,-3.3515,-3.3523,-3.3527,-3.3548,-3.3559,-3.3444,-3.3444,-3.3444,0,0,-3.3452,-3.3444,-3.3457,-3.3465,-3.3463,-3.348,-3.3433,-3.3454,-3.3466,-3.3422,-3.3449,-3.3443,-3.3439,-3.3477,-3.3493,-3.3473,-3.3558,-3.3529,-3.3535,-3.3536,-3.3554,-3.3565,-3.3575,-3.3447,-3.3447,-3.3446,0,0,-3.3529,-3.3527,-3.3557,-3.3555,-3.3552,-3.3537,-3.3544,-3.3533,-3.3527,-3.3555,-3.3521,-3.3535,-3.3557,-3.3555,-3.3557,-3.3632,-3.3605,-3.3637,-3.3683,-3.3704,-3.3713,-3.3721,-3.3745,-3.3754,-3.3642,-3.3642,-3.3642,0,-3.3577,-3.3602,-3.3576,-3.3599,-3.3602,-3.3563,-3.3593,-3.3592,-3.3592,-3.3595,-3.3574,-3.3598,-3.3594,-3.3629,-3.3647,-3.3651,-3.3657,-3.3636,-3.3714,-3.3721,-3.3728,-3.3751,-3.376,-3.3646,-3.3645,-3.3645,-3.3645,0,-3.3659,-3.3677,-3.3702,-3.3702,-3.3709,-3.3736,-3.3712,-3.3723,-3.3703,-3.369,-3.3718,-3.3711,-3.3718,-3.3725,-3.3707,-3.3758,-3.3745,-3.372,-3.368,-3.3743,-3.3764,-3.3772,-3.3651,-3.365,-3.3649,-3.3648,0,0,-3.3774,-3.3758,-3.3768,-3.3766,-3.3759,-3.3771,-3.3796,-3.3802,-3.3809,-3.3811,-3.3829,-3.3848,-3.3823,-3.3825,-3.3807,-3.3825,-3.3882,-3.3797,-3.3796,-3.381,-3.3933,-3.395,-3.3961,-3.3865,-3.3866,-3.3868,-3.3933,0,-3.3846,-3.3885,-3.3862,-3.3904,-3.3919,-3.3882,-3.3902,-3.3899,-3.3888,-3.3898,-3.3886,-3.3898,-3.3867,-3.3867,-3.3884,-3.3871,-3.3905,-3.3867,-3.3879,-3.3879,-3.3878,-3.3972,-3.3991,-3.4052,-3.3941,-3.3942,-3.3943,0,-3.3935,-3.3939,-3.3982,-3.397,-3.3975,-3.3994,-3.3996,-3.4007,-3.4003,-3.3993,-3.3995,-3.3971,-3.3992,-3.3955,-3.3983,-3.3957,-3.3961,-3.3955,-3.3957,-3.3955,-3.3913,-3.397,-3.4072,-3.408,-3.3956,-3.3955,-3.3954,0,-3.401,-3.4027,-3.4054,-3.4054,-3.4041,-3.4054,-3.405,-3.4043,-3.4047,-3.405,-3.4052,-3.4058,-3.406,-3.4065,-3.4042,-3.4018,-3.4072,-3.4034,-3.4062,-3.4063,-3.4073,-3.4072,-3.4174,-3.4081,-3.4081,-3.4081,-3.4081,0,-3.4091,-3.4118,-3.4087,-3.4103,-3.4132,-3.4106,-3.4135,-3.4126,-3.412,-3.4133,-3.4103,-3.4116,-3.4087,-3.4097,-3.408,-3.4104,-3.4106,-3.4097,-3.4092,-3.4098,-3.4099,-3.4098,-3.4092,-3.4083,-3.4083,-3.4082,-3.4082,0,-3.4178,-3.4159,-3.4186,-3.4171,-3.4168,-3.4189,-3.4176,-3.419,-3.4177,-3.4194,-3.4197,-3.4175,-3.4185,-3.4164,-3.4172,-3.416,-3.4193,-3.4182,-3.4194,-3.4189,-3.4218,-3.4215,-3.4321,-3.4332,-3.4235,-3.4236,-3.4237,0,-3.423,-3.4249,-3.4236,-3.4243,-3.4239,-3.4251,-3.4255,-3.4229,-3.4235,-3.423,-3.4244,-3.4252,-3.4256,-3.4273,-3.4258,-3.4263,-3.425,-3.4287,-3.4251,-3.4256,-3.4247,-3.4245,-3.4245,-3.4294,-3.4295,-3.4296,-3.4297,0,-3.4322,-3.4311,-3.4318,-3.4321,-3.4326,-3.4328,-3.4327,-3.4335,-3.4307,-3.4315,-3.4324,-3.4327,-3.4334,-3.4341,-3.4342,-3.4336,-3.4311,-3.4309,-3.4315,-3.432,-3.4325,-3.4319,-3.4211,-3.4306,-3.4305,-3.4304,-3.4304,-3.4303,-3.439,-3.4405,-3.4397,-3.4406,-3.4402,-3.4402,-3.4413,-3.4401,-3.4409,-3.4412,-3.4397,-3.4409,-3.4402,-3.4401,-3.4398,-3.4406,-3.439,-3.44,-3.4402,-3.4404,-3.4407,-3.4326,-3.4407,-3.4407,-3.4407,-3.4406,-3.4406,0,-3.4478,-3.4471,-3.4479,-3.4478,-3.4484,-3.4461,-3.4459,-3.4465,-3.4476,-3.4472,-3.4476,-3.4486,-3.4492,-3.4478,-3.4481,-3.4491,-3.4479,-3.4492,-3.449,-3.4488,-3.4423,-3.4416,-3.4501,-3.4501,-3.4501,-3.4501,-3.4501,-3.4501,-3.4524,-3.4546,-3.4534,-3.4554,-3.4547,-3.4559,-3.4559,-3.4558,-3.4554,-3.4566,-3.4571,-3.4561,-3.4553,-3.4555,-3.4559,-3.4555,-3.4556,-3.4573,-3.4564,-3.4503,-3.4493,-3.4484,-3.4477,-3.4574,-3.4574,-3.4628,-3.4628,-3.4629]},{"header":{"parameterUnit":"m.s-1","parameterCategory":1,"la1":30.2991,"la2":30.254,"lo1":-89.0895,"lo2":-89.0444,"dy":0.0017,"dx":0.0017,"nx":28,"ny":28,"refTime":"2024-06-03T09:00:00:Z","depth":0,"parameterNumber":3,"parameterNumberName":"V-component_of_WINDS"},"data":[0,0,0,0,0,0,0,0,0,0,0,0,0,0,0,0,0,0,0,0,0,0,0,0,0,0,0,0,0,0,0,0,0,0,0,0,0,0,0,0,0,0,0,0,0,0,0,0,0,0,0,0,0,0,0,0,0,0,4.0473,4.0477,0,4.0818,4.0821,4.0825,4.0851,4.0847,4.0843,4.0839,4.1187,4.12,4.1212,0,0,0,0,0,0,0,0,0,0,0,0,0,3.9831,3.9843,4.0473,4.0477,4.0481,4.0817,4.0822,4.0826,4.0851,4.0847,4.0842,4.0838,4.1183,4.1198,4.1214,0,0,0,0,0,0,0,0,0,0,0,0,0,4.0136,3.9846,4.0472,4.0534,4.0543,4.0816,4.0822,4.0828,4.0852,4.0846,4.0841,4.0835,4.1178,4.1197,4.1216,4.1448,0,0,4.1274,4.1283,0,0,0,0,0,0,0,0,4.0119,4.0159,4.0521,4.053,4.0541,4.0785,4.0723,4.1035,4.0854,4.0735,4.0839,4.0833,4.1058,4.1087,4.1164,4.1464,4.1479,4.1276,4.1288,4.1296,4.1301,0,0,0,0,0,0,0,4.0097,4.0145,4.0609,4.0526,4.0538,4.0543,4.058,4.0782,4.0924,4.0745,4.0747,4.0788,4.1062,4.1145,4.1172,4.1484,4.1275,4.1293,4.1304,4.1312,4.1995,4.2001,0,0,0,0,0,0,4.0065,4.0127,4.0598,4.0619,4.0312,4.056,4.0601,4.0713,4.0922,4.0948,4.0793,4.0788,4.1115,4.1149,4.1184,4.1473,4.1296,4.1314,4.1325,4.1988,4.1996,4.2003,0,0,0,0,0,0,4.0051,4.0107,4.0584,4.0374,4.0435,4.0577,4.0702,4.0722,4.0805,4.0958,4.0983,4.0852,4.1112,4.1157,4.1383,4.1485,4.1322,4.134,4.198,4.1991,4.2,4.205,0,0,0,0,0,0,4.0033,4.0102,4.0193,4.0376,4.0446,4.0779,4.0708,4.0733,4.0839,4.0836,4.102,4.1045,4.1111,4.1354,4.1402,4.1509,4.1355,4.1972,4.1985,4.1997,4.204,4.206,4.2078,0,0,0,0,0,4.001,4.0192,4.0197,4.0254,4.0563,4.0785,4.0825,4.0899,4.0847,4.094,4.1037,4.1039,4.1465,4.1377,4.1431,4.1545,4.1966,4.1981,4.1996,4.2031,4.2056,4.2077,0,0,0,0,0,0,4.0015,4.0217,4.0225,4.0472,4.0612,4.0789,4.0908,4.0922,4.1078,4.1069,4.1151,4.1193,4.1417,4.1502,4.1401,4.1781,4.171,4.1736,4.1718,4.1743,4.1762,4.1738,4.1371,0,0,0,0,0,4.0045,4.0209,4.0376,4.0578,4.0647,4.0765,4.0864,4.0909,4.1056,4.1115,4.1229,4.137,4.1536,4.1643,4.1804,4.2051,4.2092,4.2155,4.2174,4.2189,4.2212,4.2351,4.2382,4.2052,4.2052,4.2052,0,0,4.0108,4.0239,4.0337,4.0582,4.0695,4.0863,4.0815,4.0994,4.1119,4.1141,4.1364,4.1452,4.1614,4.1852,4.1962,4.1931,4.2311,4.2208,4.2219,4.2234,4.2369,4.24,4.2428,4.2062,4.2061,4.2059,0,0,4.0311,4.0425,4.0608,4.0722,4.0895,4.0972,4.1015,4.1192,4.1252,4.1476,4.1497,4.1645,4.1928,4.2045,4.214,4.2386,4.2394,4.2435,4.2536,4.267,4.2696,4.272,4.2811,4.2842,4.2457,4.2457,4.2457,0,4.0368,4.0624,4.0698,4.0879,4.0987,4.1015,4.12,4.1307,4.1522,4.1595,4.1556,4.1914,4.2025,4.2291,4.2352,4.2427,4.248,4.2417,4.2687,4.2711,4.2734,4.2822,4.2855,4.2461,4.2461,4.246,4.246,0,4.0687,4.0863,4.0989,4.12,4.1321,4.1502,4.1603,4.1716,4.1749,4.183,4.2058,4.2192,4.2382,4.2447,4.248,4.2719,4.2694,4.267,4.26,4.2769,4.2852,4.2886,4.2467,4.2466,4.2465,4.2464,0,0,4.0905,4.1155,4.12,4.1297,4.1489,4.1627,4.1808,4.1996,4.2092,4.2238,4.2394,4.2633,4.2612,4.2721,4.2767,4.2884,4.3073,4.2846,4.2851,4.2886,4.3347,4.3367,4.3405,4.3078,4.3084,4.309,4.3335,0,4.1132,4.1461,4.1533,4.1815,4.198,4.2009,4.2167,4.2302,4.2381,4.2531,4.2618,4.2788,4.2746,4.2812,4.2929,4.3026,4.3168,4.3008,4.3224,4.3231,4.3187,4.3448,4.347,4.3695,4.3367,4.3373,4.3377,0,4.1442,4.1599,4.1899,4.2071,4.2143,4.2285,4.2463,4.2606,4.2758,4.2807,4.2929,4.2963,4.3152,4.3069,4.3332,4.3222,4.3313,4.3374,4.3384,4.3411,4.3317,4.3485,4.3768,4.3803,4.3428,4.3424,4.3421,0,4.1576,4.1861,4.2079,4.216,4.2365,4.2464,4.2554,4.2701,4.2809,4.2963,4.3035,4.3207,4.3303,4.3435,4.3514,4.3446,4.3771,4.3694,4.3818,4.3816,4.3889,4.3884,4.4195,4.394,4.394,4.3939,4.3939,0,4.1825,4.2008,4.2142,4.2276,4.2482,4.2561,4.2762,4.2851,4.2981,4.3132,4.3164,4.3304,4.3398,4.3551,4.3613,4.3822,4.3864,4.3909,4.3925,4.391,4.3904,4.3974,4.3962,4.3948,4.3946,4.3945,4.3943,0,4.2011,4.2108,4.2348,4.2523,4.2571,4.2715,4.2864,4.2994,4.3073,4.3264,4.3312,4.3437,4.3618,4.3709,4.3934,4.3976,4.4213,4.4216,4.4163,4.417,4.429,4.4279,4.466,4.4715,4.442,4.4423,4.4425,0,4.2166,4.2308,4.2499,4.2604,4.2697,4.2864,4.2975,4.3058,4.3172,4.3356,4.3465,4.3648,4.38,4.4089,4.4198,4.437,4.438,4.4501,4.4406,4.4387,4.4387,4.4379,4.4395,4.452,4.4523,4.4525,4.4527,0,4.2431,4.2473,4.2634,4.2812,4.2945,4.3089,4.323,4.3313,4.3417,4.3544,4.3732,4.385,4.4081,4.4263,4.4444,4.4533,4.4549,4.4555,4.4594,4.4582,4.4548,4.4572,4.4214,4.4547,4.4545,4.4544,4.4543,4.4542,4.261,4.2738,4.2894,4.3072,4.3187,4.3319,4.3451,4.3548,4.3706,4.3904,4.3941,4.414,4.4288,4.4532,4.4627,4.4783,4.4757,4.4812,4.4826,4.484,4.4848,4.4519,4.4816,4.4815,4.4815,4.4814,4.4814,0,4.288,4.2982,4.3145,4.3344,4.3484,4.3486,4.3642,4.3759,4.3935,4.4073,4.4222,4.4438,4.4615,4.4737,4.4917,4.5018,4.5029,4.5063,4.5058,4.5079,4.486,4.481,4.5051,4.505,4.505,4.505,4.505,4.505,4.3038,4.3257,4.3317,4.3593,4.3692,4.3891,4.398,4.4101,4.4212,4.4452,4.4601,4.468,4.4812,4.5,4.5162,4.5194,4.526,4.5294,4.5325,4.5119,4.5094,4.5071,4.5025,4.5306,4.5307,4.5533,4.5535,4.5536]}]]